Parkersburg, WV

10:47 AM EDT on October 21, 2017 (GMT -0400)
Wood County Wilson

Weather History for KPKB - January, 2013

Change the Weather History Date:

Monday, January 14, 2013

  Actual Average Record
Temperature  
Mean Temperature 46 °F 31 °F  
Max Temperature 58 °F 40 °F 74 °F (1995)
Min Temperature 33 °F 23 °F -4 °F (1929)
Degree Days  
Heating Degree Days 19 34  
Month to date heating degree days 369 469  
Since 1 July heating degree days 2276 2379  
Cooling Degree Days 0 0  
Month to date cooling degree days 0 0  
Year to date cooling degree days 0 0  
Moisture  
Dew Point 34 °F    
Average Humidity 77    
Maximum Humidity 89    
Minimum Humidity 64    
Precipitation  
Precipitation 0.06 in 0.09 in 0.65 in (2007)
Month to date precipitation 0.76 1.31  
Year to date precipitation 0.76 1.31  
Sea Level Pressure  
Sea Level Pressure 30.23 in    
Wind  
Wind Speed 6 mph (WNW)    
Max Wind Speed 25 mph    
Max Gust Speed 35 mph    
Visibility 9 miles    
Events Rain    
T = Trace of Precipitation, MM = Missing Value Source: NWS Daily Summary

Daily Weather History Graph

Daily Weather History Graph

Search for Another Location

Airport or City:

Trip Planner

Search our weather history database for the weather conditions in past years. The results will help you decide how hot, cold, wet, or windy it might be!

Date:

Astronomy

Jan. 14, 2013 Rise Set
Actual Time 7:44 AM EST 5:25 PM EST
Civil Twilight 7:14 AM EST 5:55 PM EST
Nautical Twilight 6:41 AM EST 6:28 PM EST
Astronomical Twilight 6:09 AM EST 7:00 PM EST
Moon 9:18 AM EST (1/14) 9:08 PM EST (1/14)
Length of Visible Light 10h 40m
Length of Day
9h 41m
Waxing Crescent, 11% of the Moon is Illuminated
Jan 14
Waxing Crescent
Jan 18
First Quarter
Jan 26
Full
Feb 3
Last Quarter
Feb 10
New

Hourly Weather History & Observations

Time (EST) Temp. Windchill Dew Point Humidity Pressure Visibility Wind Dir Wind Speed Gust Speed Precip Events Conditions
12:12 AM 55.4 °F - 53.6 °F 94% 29.99 in 2.0 mi WNW 24.2 mph 34.5 mph 0.09 in Rain Light Rain
12:17 AM 53.6 °F - 51.8 °F 94% 30.00 in 3.0 mi WNW 17.3 mph 34.5 mph 0.09 in Rain Light Rain
12:21 AM 53.6 °F - 50.0 °F 88% 30.00 in 4.0 mi West 19.6 mph 27.6 mph 0.09 in Rain Light Rain
12:29 AM 50.0 °F - 46.4 °F 87% 30.01 in 7.0 mi WNW 16.1 mph 31.1 mph 0.09 in Rain Light Rain
1:15 AM 44.6 °F 37.8 °F 41.0 °F 87% 30.08 in 4.0 mi WNW 15.0 mph 27.6 mph N/A   Overcast
1:43 AM 42.8 °F 38.0 °F 39.2 °F 87% 30.11 in 3.0 mi WNW 8.1 mph - 0.01 in   Overcast
1:53 AM 42.1 °F 37.7 °F 39.9 °F 92% 30.11 in 4.0 mi WNW 6.9 mph 16.1 mph 0.01 in   Overcast
2:24 AM 42.8 °F 38.6 °F 39.2 °F 87% 30.13 in 10.0 mi WNW 6.9 mph - N/A   Overcast
2:53 AM 42.1 °F 37.7 °F 39.9 °F 92% 30.15 in 10.0 mi WNW 6.9 mph - N/A   Overcast
3:35 AM 42.8 °F 39.3 °F 39.2 °F 87% 30.16 in 10.0 mi WNW 5.8 mph - N/A   Overcast
3:43 AM 42.8 °F 39.3 °F 39.2 °F 87% 30.17 in 10.0 mi WNW 5.8 mph - N/A   Overcast
3:53 AM 42.1 °F 37.1 °F 37.9 °F 85% 30.17 in 10.0 mi WNW 8.1 mph - N/A   Overcast
4:03 AM 42.8 °F 38.0 °F 39.2 °F 87% 30.17 in 10.0 mi West 8.1 mph - N/A   Overcast
4:53 AM 41.0 °F 34.7 °F 37.0 °F 86% 30.19 in 10.0 mi West 10.4 mph - N/A   Overcast
5:14 AM 41.0 °F 34.3 °F 35.6 °F 81% 30.20 in 10.0 mi West 11.5 mph - N/A   Overcast
5:53 AM 39.9 °F 32.9 °F 34.0 °F 79% 30.24 in 10.0 mi West 11.5 mph 17.3 mph N/A   Overcast
6:53 AM 39.0 °F 32.3 °F 32.0 °F 76% 30.28 in 10.0 mi WNW 10.4 mph - N/A   Overcast
7:53 AM 37.9 °F 33.5 °F 30.9 °F 76% 30.30 in 10.0 mi WNW 5.8 mph - N/A   Overcast
8:53 AM 37.0 °F 33.3 °F 30.0 °F 76% 30.35 in 10.0 mi West 4.6 mph - N/A   Overcast
9:53 AM 37.0 °F 32.4 °F 30.0 °F 76% 30.37 in 10.0 mi WNW 5.8 mph - N/A   Overcast
10:53 AM 37.9 °F 34.4 °F 28.9 °F 70% 30.36 in 10.0 mi West 4.6 mph - N/A   Overcast
11:53 AM 37.0 °F 31.6 °F 28.0 °F 70% 30.35 in 10.0 mi West 6.9 mph - N/A   Overcast
12:53 PM 39.0 °F 34.0 °F 28.0 °F 65% 30.32 in 10.0 mi North 6.9 mph - N/A   Overcast
1:53 PM 39.0 °F 33.4 °F 28.0 °F 65% 30.26 in 10.0 mi NE 8.1 mph - N/A   Partly Cloudy
2:53 PM 39.0 °F 32.8 °F 28.9 °F 67% 30.28 in 10.0 mi North 9.2 mph - N/A   Clear
3:53 PM 37.9 °F 31.5 °F 27.0 °F 65% 30.32 in 10.0 mi WNW 9.2 mph 16.1 mph N/A   Clear
5:53 PM 36.0 °F 30.3 °F 27.0 °F 70% 30.41 in 10.0 mi NW 6.9 mph - N/A   Clear
6:53 PM 35.1 °F 31.0 °F 26.1 °F 70% 30.41 in 10.0 mi NW 4.6 mph - N/A   Mostly Cloudy
7:53 PM 34.0 °F - 26.1 °F 73% 30.40 in 10.0 mi Calm Calm - N/A   Overcast
8:53 PM 34.0 °F 31.0 °F 27.0 °F 75% 30.37 in 10.0 mi WNW 3.5 mph - N/A   Overcast
9:53 PM 34.0 °F 28.8 °F 26.1 °F 73% 30.37 in 8.0 mi NW 5.8 mph - N/A   Overcast
10:53 PM 33.1 °F 28.7 °F 25.0 °F 72% 30.32 in 10.0 mi East 4.6 mph - N/A   Overcast
11:53 PM 33.1 °F 30.0 °F 26.1 °F 75% 30.32 in 8.0 mi NW 3.5 mph - N/A   Overcast